User: anonymous   Login
Location: The D'Auria's Ocala Star Observatory
(29.0276°N, 82.1742°W)
Time: 19:46:49
(UTC-05:00)
Language:

Okean 3 Rocket - Orbit

View from above orbital plane
View from above orbital plane
View from above satellite
View from above satellite

Ground track
Ground track

The orbit data is extracted from the following two-line orbital elements,

1 21398U 91039B   17058.19838815  .00000119  00000-0  12692-4 0  9994
2 21398  82.5253 328.5756 0021394 179.1821 341.0366 14.79651175387641
Epoch (UTC): 27 February 2017 04:45:40
Eccentricity: 0.0021394
inclination: 82.5253°
perigee height: 615 km
apogee height: 645 km
right ascension of ascending node: 328.5756°
argument of perigee: 179.1821°
revolutions per day: 14.79651175
mean anomaly at epoch: 341.0366°
orbit number at epoch: 38764

The dashed part of the orbit path shows where the satellite is in the earth's shadow,  

DLR